{"data":{"norad_id":67945,"epoch":"2026-05-25T04:36:08.400096Z","epoch_age_seconds":65250,"freshness":"FRESH","line1":"1 67945U 26037P   26145.19176389  .00018388  00000+0  67579-3 0  9995","line2":"2 67945  43.0018 118.4163 0001318 249.4345 110.6365 15.27593051 15047","mean_motion":15.27593051,"eccentricity":0.0001318,"inclination_deg":43.0018,"raan_deg":118.4163,"arg_perigee_deg":249.4345,"mean_anomaly_deg":110.6365,"bstar":0.00067579,"rev_number":1504,"period_min":94.265943345143,"perigee_km":482.10571775198,"apogee_km":483.91431610564,"semimajor_km":6861.1470169288,"source":"CELESTRAK","updated_at":"2026-05-25T13:38:21.768969Z"}}